Flag for China Weather past 2 weeks in Chengdu, Sichuan, China

Now
75 °F

Fog.


Feels Like: 75 °F
Forecast: 71 / 76 °F
Wind: 1 mph from North

Location: Chengdu Airport

Current Time: Aug 21, 2014 at 2:40:00 AM

Latest Report: Aug 21, 2014 at 2:00 AM


Visibility: 3 mi

Pressure: 29.80 "Hg

Humidity: 83%

Dew point: 70 °F

Location of ChengduLocation

Historic Weather in Chengdu — Graph

°F

Chengdu temperature yesterday

Maximum temperature yesterday: 81 °F (at 12:00 AM)
Minimum temperature yesterday: 75 °F (at 2:00 AM)
Average temperature yesterday: 78 °F

Past Weeks' High & Low Weather Summary

 TemperatureHumidityPressure
High93 °F (Aug 6, 4:00 PM)94% (Aug 6, 9:00 AM)29.95 "Hg (Aug 6, 9:00 AM)
Low70 °F (Aug 9, 9:00 AM)33% (Aug 14, 3:00 PM)29.50 "Hg (Aug 6, 6:00 PM)
Average78 °F74%29.74 "Hg
* Reported Aug 6 1:00 AM — Aug 21 1:00 AM, Chengdu, Weather by CustomWeather, © 2014

Note: Actual official high and low records may vary slightly from our data, if they occured in-between our weather recording intervals... More about our weather records

Advertising

Chengdu weather history for previous 24 hours

 ConditionsComfort  
Time TempWeatherWind HumidityBarometerVisibility
1:00 AM
Aug 21
77 °FPassing clouds.1 mph79%29.80 "Hg4 mi
12:00 AM77 °FPassing clouds.1 mph74%29.80 "Hg4 mi
11:00 PM
Aug 20
75 °FPassing clouds.1 mph78%29.80 "Hg5 mi
10:00 PM77 °FPassing clouds.3 mph74%29.83 "HgN/A
9:00 PM77 °FPassing clouds.1 mph69%29.80 "HgN/A
8:00 PM77 °FPassing clouds.1 mph74%29.80 "HgN/A
7:00 PM79 °FScattered clouds.1 mph70%29.80 "HgN/A
6:00 PM79 °FScattered clouds.3 mph65%29.80 "HgN/A
5:00 PM81 °FScattered clouds.6 mph66%29.80 "Hg5 mi
4:00 PM79 °FScattered clouds.6 mph70%29.80 "Hg4 mi
3:00 PM79 °FScattered clouds.6 mph74%29.83 "Hg4 mi
2:00 PM79 °FFog.6 mph74%29.86 "Hg3 mi
1:00 PM77 °FScattered clouds.6 mph79%29.89 "Hg4 mi
12:00 PM77 °FFog.3 mph79%29.92 "Hg3 mi
11:00 AM77 °FFog.3 mph79%29.92 "Hg3 mi
10:00 AM77 °FFog.3 mph83%29.92 "Hg2 mi
9:00 AM77 °FFog.1 mph83%29.92 "Hg1 mi
8:00 AM77 °FFog.1 mph83%29.89 "Hg2 mi
7:00 AM79 °FFog.3 mph74%29.89 "Hg2 mi
6:00 AM79 °FFog.3 mph79%29.86 "Hg3 mi
5:00 AM77 °FFog.1 mph83%29.86 "Hg3 mi
4:00 AM79 °FClear.3 mph74%29.86 "Hg4 mi
3:00 AM79 °FClear.6 mph74%29.89 "Hg4 mi
2:00 AM75 °FClear.1 mph83%29.89 "Hg4 mi
Weather by CustomWeather, © 2014

See weather overviewHow to use our weather pages